Location: La Pernelle
(49.6188°N, 1.2999°W)
Time: 15:39:24
(UTC+00:00)

Okean 2 Rocket - Pass Details

Date: 12 June 2021
Orbit: 617 x 640 km, 82.5° (Epoch: 31 July)

Event Time Altitude Azimuth Distance (km) Brightness Sun altitude
Rises 21:07:02 0° 343° (NNW) 2,935 7.9 -7.1°
Reaches altitude 10° 21:09:23 10° 336° (NNW) 2,026 7.2 -7.4°
Maximum altitude 21:13:32 38° 269° (W) 982 4.5 -7.8°
Drops below altitude 10° 21:17:40 10° 201° (SSW) 2,022 5.4 -8.2°
Sets 21:20:01 0° 194° (SSW) 2,929 6.2 -8.5°
